RH
15 16 16 13 12 12 12 11 11 11 11 12 13 14 15 17 18 19 20 21 22 24 26 28 29 31 33 35 36 37 39 40 40 40 41 41 41 39 37 36 35 35 35 35 34 33 31 30 28 27 25 24
17 18 17 14 13 14 13 12 12 11 12 13 14 15 16 18 19 20 21 22 24 26 28 30 32 33 35 36 38 39 41 42 43 43 44 45 44 42 39 38 37 37 36 35 34 32 31 29 28 27 25 24
18 19 19 15 14 15 14 12 12 12 12 14 15 16 18 20 20 21 22 23 26 29 31 34 36 37 37 38 39 40 42 43 44 45 45 46 45 43 40 39 39 38 37 36 35 33 31 29 28 27 25 24
19 21 21 17 15 16 15 13 13 13 13 14 16 17 19 21 22 22 23 26 29 32 35 37 39 40 40 40 40 40 42 42 43 44 44 45 46 45 42 41 40 40 39 37 35 33 32 30 28 27 25 25
20 23 23 18 16 18 17 14 13 14 13 15 17 19 21 23 24 24 26 29 33 36 39 41 42 43 42 42 41 40 40 40 41 42 43 45 47 47 44 41 40 39 39 38 36 34 33 30 28 27 26 25
22 25 26 20 17 19 19 16 14 14 14 15 18 20 22 25 26 26 29 32 37 40 42 44 44 44 43 41 41 40 40 39 40 40 41 43 46 47 45 42 40 39 39 39 37 35 33 30 29 27 26 25
24 27 29 23 19 21 21 17 15 15 15 16 19 22 24 26 28 30 32 35 40 43 45 45 45 44 43 41 40 39 39 38 38 38 40 43 47 47 46 44 42 41 40 39 36 34 32 30 29 28 27 26
27 29 32 27 20 22 23 19 16 16 16 18 21 24 26 28 31 32 35 38 42 46 47 47 46 45 43 41 40 39 38 38 36 37 38 42 47 49 48 47 45 43 40 38 36 34 33 31 30 29 28 26
30 32 36 31 22 23 25 21 18 17 17 19 23 26 28 30 33 35 37 40 43 46 48 49 47 46 43 42 40 39 38 37 36 37 38 42 47 50 50 49 47 43 40 39 37 34 33 33 32 31 29 27
34 37 39 35 26 24 27 24 19 18 18 21 24 28 30 33 36 38 39 41 44 47 49 50 49 47 44 42 41 39 38 37 37 38 41 44 48 51 52 51 48 44 43 41 38 35 35 36 34 32 30 28
39 41 44 40 30 25 28 27 21 19 19 22 26 29 33 35 38 40 42 42 45 47 49 50 50 48 46 44 43 40 38 37 38 40 45 47 49 52 54 52 48 46 45 43 40 37 38 39 37 34 32 30
44 46 48 45 35 28 30 30 24 21 20 23 28 32 35 38 40 43 45 45 46 48 50 51 51 50 48 46 44 42 39 38 38 40 44 48 50 51 53 53 51 49 48 47 44 41 42 42 39 36 34 32
48 52 53 51 41 32 32 33 27 22 22 25 30 35 39 41 43 45 48 49 48 49 50 51 52 52 51 49 46 44 41 40 39 40 41 45 50 53 53 53 53 54 53 51 48 45 46 45 41 39 38 36
53 58 59 57 48 37 35 36 30 25 23 27 33 38 42 45 48 50 52 53 52 52 52 52 54 54 54 52 49 46 44 42 41 41 41 43 50 55 56 56 57 59 60 60 56 52 50 46 43 43 42 40
59 66 67 64 56 43 39 39 34 27 25 29 36 42 47 50 53 55 57 59 58 57 56 56 57 57 57 55 54 52 49 47 45 44 43 43 48 57 61 61 63 65 68 70 66 60 55 49 46 47 46 46
67 73 76 72 64 50 44 43 37 30 28 31 38 45 52 57 59 61 63 64 64 63 62 62 62 62 61 59 59 58 56 53 51 48 46 44 47 58 66 68 70 72 74 76 74 69 64 57 53 51 51 53
77 82 85 81 71 58 50 48 40 33 30 32 40 47 55 63 67 68 68 69 69 69 69 69 68 67 65 64 63 62 62 60 58 55 51 48 48 58 67 72 77 78 77 77 77 77 76 68 60 56 56 58
89 91 91 86 79 66 57 54 45 37 33 34 42 51 57 66 73 75 74 73 74 74 75 75 74 73 71 69 67 66 66 65 64 61 58 53 50 58 69 75 79 80 78 76 76 79 80 72 63 59 60 62
98 98 94 89 85 75 65 61 51 40 36 36 43 53 60 66 75 81 80 78 78 79 81 80 79 79 78 76 74 73 71 69 69 67 64 59 54 59 69 76 79 81 79 75 73 74 74 70 65 65 65 65
101 101 97 91 88 83 74 69 59 44 37 37 42 52 61 67 75 84 87 85 82 84 87 87 85 85 85 84 82 80 78 75 73 72 69 65 58 57 66 74 77 79 78 74 70 69 69 69 70 69 68 68
99 100 99 94 92 90 84 78 68 51 40 38 40 49 60 67 75 85 92 91 88 90 93 94 93 93 93 92 89 87 85 82 79 77 74 71 64 58 63 72 75 76 74 71 67 66 68 71 72 72 73 73
99 98 98 97 95 95 92 88 80 60 44 40 40 45 56 66 74 83 94 98 96 96 97 99 99 99 99 97 95 93 92 90 87 84 80 76 70 62 63 72 78 77 74 70 68 67 69 71 73 75 78 77
99 94 94 97 97 98 99 98 93 75 52 41 40 43 51 64 72 80 93 102 103 102 102 102 102 102 101 101 100 98 97 96 93 90 86 80 74 67 65 73 81 80 76 74 73 72 71 72 75 80 83 83
94 91 91 95 99 103 105 105 102 90 66 46 40 42 47 59 71 79 89 100 106 107 106 104 103 103 103 104 104 103 102 100 99 96 91 85 79 72 68 74 82 81 79 77 76 75 75 76 79 85 88 88
90 93 93 96 102 106 108 108 104 98 83 59 42 41 46 55 69 80 88 97 102 105 107 106 105 104 105 106 106 106 105 103 102 99 95 89 83 77 73 77 83 83 81 79 79 78 78 79 82 86 90 90
92 100 101 100 103 106 107 107 103 101 96 78 53 41 45 54 65 78 88 94 97 99 102 105 107 107 106 107 107 107 107 105 103 100 97 93 90 85 80 82 86 85 82 81 80 78 77 79 81 86 90 91
98 106 108 105 102 104 107 107 104 100 100 93 69 47 44 52 62 73 83 89 92 92 95 100 105 108 109 110 110 109 109 107 103 100 97 95 95 93 88 87 89 88 84 82 80 77 76 78 81 85 89 93
102 107 109 107 103 102 105 107 105 101 100 99 85 61 47 49 58 66 72 78 82 84 86 90 96 102 107 109 110 109 108 106 102 99 97 97 98 97 93 91 92 91 87 84 81 78 78 80 83 86 89 93
103 106 107 106 101 97 100 104 105 104 103 101 94 77 56 47 52 57 60 65 69 73 73 75 79 85 92 99 103 104 102 102 100 99 98 99 100 98 94 92 93 93 90 87 83 81 83 85 86 89 90 90
103 106 105 99 93 92 99 106 108 106 104 102 98 89 69 48 44 47 50 53 55 58 58 59 63 68 75 82 89 92 93 94 97 100 101 101 102 98 92 91 92 92 91 89 87 87 89 89 90 92 91 89
103 103 101 97 93 96 104 109 108 104 102 101 99 97 84 62 48 43 42 44 45 45 45 46 49 54 61 68 74 79 82 86 93 100 104 104 102 96 90 90 89 88 88 88 90 94 93 91 93 94 92 91
Wind_Speed
45 44 43 43 42 42 41 41 40 40 39 38 37 36 35 34 34 33 33 31 30 29 28 27 26 25 25 25 25 25 25 25 25 25 25 25 25 25 26 26 27 28 28 29 29 30 30 31 32 33 35 36
44 44 43 42 42 41 41 41 40 40 39 38 37 36 35 35 34 34 33 32 31 30 29 28 27 27 26 26 26 26 26 27 27 27 27 27 27 28 28 28 29 30 30 31 31 31 32 33 34 36 37 38
44 43 43 42 41 41 41 40 40 39 39 38 37 36 36 36 35 35 34 33 31 30 30 29 28 28 27 27 27 27 28 28 28 28 29 29 29 29 30 30 31 32 32 33 33 33 34 35 37 38 39 39
44 43 42 41 41 41 41 40 40 40 39 38 38 37 37 36 36 35 34 33 32 30 30 29 29 29 29 29 29 29 29 29 29 30 31 31 31 31 31 32 33 34 34 35 35 35 36 37 38 39 40 41
44 43 42 41 41 40 40 40 40 40 40 39 38 38 37 37 36 35 34 33 32 30 30 30 30 30 30 30 30 31 31 31 31 31 32 32 32 32 33 34 35 35 36 37 37 37 38 39 40 41 41 42
44 43 42 41 40 40 40 40 40 40 40 39 39 38 38 37 37 36 35 33 32 31 31 31 32 32 32 32 33 33 33 33 33 33 33 33 33 34 35 36 36 37 37 38 38 39 40 40 41 42 43 45
43 43 42 41 40 40 40 40 40 40 40 40 39 39 38 38 37 36 35 34 33 32 32 32 33 34 34 34 34 34 34 35 35 35 35 35 35 35 36 37 38 38 38 39 40 41 41 42 43 44 45 47
43 43 42 41 41 40 40 41 41 41 40 40 40 39 39 38 38 37 36 35 34 34 34 34 35 35 36 36 36 36 36 36 37 37 37 36 36 37 38 38 39 39 39 40 41 42 42 43 45 46 48 49
43 43 42 42 41 40 40 41 41 41 41 41 41 40 39 39 38 38 37 37 36 36 36 36 37 37 38 38 38 38 38 38 38 38 38 38 38 38 39 40 40 40 41 42 43 43 44 45 47 49 50 51
43 42 42 42 41 41 41 41 41 42 42 42 41 41 40 40 40 39 39 38 38 38 38 38 39 39 40 40 40 39 39 39 39 39 39 40 40 40 41 41 42 42 43 44 44 45 45 47 49 50 52 53
43 42 42 42 42 41 41 42 42 42 42 43 42 42 41 41 41 41 40 40 40 40 40 40 40 41 41 41 41 41 41 40 40 40 41 41 41 42 42 42 43 44 45 46 46 46 47 48 50 52 53 54
43 43 43 43 42 42 42 42 43 43 43 43 43 43 43 42 42 42 42 42 42 42 42 42 42 42 42 42 42 43 42 41 41 41 42 43 43 43 43 44 45 46 47 47 47 48 49 50 52 54 55 56
43 43 43 43 43 43 43 43 43 44 44 44 44 44 44 44 44 44 44 44 44 43 43 43 43 43 43 43 44 44 44 44 43 43 44 44 45 45 46 46 46 48 49 49 49 50 51 52 53 55 56 58
43 43 43 43 43 43 43 43 44 44 45 45 45 46 45 45 45 45 46 45 45 45 45 45 45 45 45 45 45 45 45 45 45 45 46 46 47 47 48 48 48 49 51 51 52 52 53 54 54 56 58 59
44 43 43 44 44 44 44 44 45 45 46 46 46 46 46 46 46 46 47 47 47 47 46 46 46 46 46 45 46 46 46 47 47 47 48 48 48 49 50 50 51 51 53 54 54 54 55 56 56 58 59 60
44 44 44 44 44 44 45 45 45 46 47 47 47 47 47 47 47 47 48 48 48 48 48 48 47 47 46 46 47 47 48 49 49 49 49 50 50 50 51 52 53 53 54 56 56 57 58 58 59 60 61 62
45 45 45 44 44 45 45 46 46 47 48 48 49 49 48 48 48 48 49 49 49 49 49 49 48 48 48 48 48 48 49 50 51 51 51 51 51 52 52 53 54 55 56 57 58 59 60 60 61 62 63 63
46 46 45 45 45 45 46 46 47 48 48 49 50 50 50 49 49 49 49 50 50 50 50 49 49 49 49 49 49 50 50 51 52 53 53 53 53 53 54 55 56 56 57 58 59 60 61 62 63 63 64 65
47 46 46 46 46 46 46 47 48 48 49 50 51 51 51 50 50 50 50 51 51 51 51 50 50 50 50 50 51 51 52 53 54 54 55 54 54 54 55 56 57 58 58 59 60 61 62 64 64 65 66 67
48 47 47 47 47 47 47 47 48 49 50 51 52 52 52 51 51 50 51 52 52 52 52 51 51 51 51 52 52 53 54 55 56 56 57 57 56 56 56 57 58 59 59 60 61 62 63 65 66 67 68 68
49 48 48 48 48 47 47 48 49 50 51 52 53 53 53 52 52 51 51 52 53 54 53 53 52 52 53 53 54 55 56 56 58 58 59 59 58 58 58 59 59 60 60 61 62 63 64 66 67 69 70 70
50 50 49 49 49 48 48 48 50 51 52 53 53 54 54 53 53 52 52 53 54 54 54 54 54 54 54 54 55 56 57 58 59 60 61 61 61 60 60 61 61 62 62 62 63 65 66 67 69 70 71 72
51 51 50 50 49 49 49 49 50 51 52 53 54 55 55 55 54 54 53 54 54 55 56 56 55 55 56 56 57 57 58 59 60 61 63 63 63 62 62 62 63 63 63 64 65 66 67 69 70 72 73 74
52 52 51 51 50 50 50 50 51 52 53 54 54 55 56 56 56 55 55 55 55 56 56 57 57 57 58 58 59 59 60 61 61 62 64 65 65 65 64 64 64 64 65 65 66 67 69 70 72 73 74 75
52 53 52 51 51 51 51 51 52 52 53 54 54 55 56 57 58 57 57 57 57 57 58 58 59 59 60 60 61 61 62 62 63 64 65 66 67 67 66 66 66 66 66 67 68 69 70 72 73 74 75 76
53 53 53 53 52 52 52 52 52 52 53 53 54 55 57 58 59 59 59 59 59 59 59 60 60 61 62 62 63 63 64 64 64 65 66 67 68 68 68 68 67 68 68 69 69 70 71 73 74 75 76 77
54 54 54 54 54 53 53 53 53 53 53 53 54 55 57 59 60 61 61 61 61 61 61 61 62 62 63 64 64 65 65 65 66 67 67 67 68 69 69 69 69 69 70 70 71 72 73 74 75 76 77 77
55 56 56 56 55 54 54 54 54 54 53 53 54 55 57 59 61 62 63 63 63 63 63 63 63 64 65 65 66 66 67 67 68 68 68 68 69 69 70 70 71 71 72 72 73 74 75 76 76 76 77 77
57 58 58 58 57 55 55 55 55 55 54 54 54 54 56 58 60 61 63 64 65 65 65 66 66 66 66 67 67 67 68 69 69 70 70 69 69 70 71 71 72 72 73 74 75 76 76 77 77 77 77 77
60 60 60 59 57 56 56 56 56 55 55 55 54 54 55 56 58 60 61 63 64 65 66 66 67 67 68 68 68 68 69 70 71 71 71 70 70 71 71 72 72 73 74 75 76 77 78 78 78 78 78 78
62 61 60 59 57 56 57 57 57 56 56 56 55 55 55 56 57 59 60 61 63 64 65 66 67 68 68 69 69 69 70 70 71 72 72 71 71 72 72 72 73 74 74 75 77 78 79 79 78 78 78 79
Wind_Direction
297 299 302 303 303 303 301 300 299 298 296 295 293 293 292 291 291 290 289 289 289 289 289 290 291 293 295 297 298 298 298 298 298 298 297 297 295 294 293 292 291 291 291 291 292 293 293 293 293 293 293 293
297 299 301 302 302 301 300 298 297 296 294 292 291 290 290 289 289 288 288 287 287 288 290 291 293 295 296 297 298 298 298 298 298 296 295 293 292 292 292 292 292 292 292 292 292 292 292 292 292 292 293 294
296 298 300 301 301 300 299 297 295 294 292 290 289 288 288 288 288 287 287 287 288 289 291 293 294 295 296 296 297 297 296 296 294 293 291 290 290 290 291 291 291 290 290 290 290 290 290 291 292 293 294 295
295 297 299 300 300 298 297 295 293 292 290 288 287 287 287 287 287 287 287 287 288 290 291 292 293 293 294 294 294 294 294 293 292 291 289 289 288 289 290 290 289 288 288 288 288 289 290 291 292 294 295 296
294 296 298 298 298 297 295 294 292 290 288 287 286 286 286 287 286 287 287 287 288 289 289 290 290 290 291 292 292 292 292 292 292 291 290 289 288 288 289 288 287 287 287 288 289 290 291 293 294 295 296 296
293 295 296 297 297 295 293 292 290 288 286 285 285 285 285 286 286 286 287 287 286 286 286 287 288 288 289 290 290 291 292 292 292 292 291 290 289 288 288 288 288 288 288 289 291 292 293 294 295 296 297 297
291 294 295 295 295 293 292 290 288 286 284 283 283 283 283 284 284 284 285 285 285 284 284 285 285 286 287 288 289 290 291 291 292 292 292 291 289 289 289 289 289 290 290 291 292 293 294 296 297 298 299 300
290 292 293 294 293 292 290 288 286 284 282 281 280 281 281 282 282 282 283 283 283 282 282 283 283 284 285 287 288 289 290 290 291 291 291 291 290 290 290 291 291 291 292 293 294 295 297 298 299 300 301 302
289 290 292 292 292 290 288 286 284 282 280 279 278 279 279 280 280 280 281 281 281 281 281 281 282 283 284 286 287 288 289 290 291 291 292 292 291 292 292 292 292 292 292 294 295 297 299 301 302 303 304 305
287 289 290 290 290 288 286 284 283 280 278 277 277 277 277 278 278 278 279 279 280 280 280 281 282 283 284 285 287 288 289 290 291 291 292 292 292 293 293 292 292 292 293 295 297 299 301 303 304 305 305 306
286 287 288 289 288 287 285 283 281 279 277 276 275 275 276 276 277 277 278 278 279 279 280 281 282 283 284 286 287 289 290 291 291 291 292 292 292 293 293 292 292 292 293 296 298 301 303 304 305 306 307 308
284 285 286 287 287 285 283 281 280 278 276 275 274 274 275 275 276 276 276 277 278 279 280 281 282 283 285 287 288 290 291 292 292 291 291 292 292 293 293 293 292 293 295 297 299 301 303 305 305 306 308 308
282 284 285 285 285 284 282 280 279 277 275 274 273 273 274 274 275 275 276 277 278 279 280 281 282 284 285 287 289 290 291 292 293 293 292 293 293 294 294 294 294 294 295 297 299 301 303 304 306 307 308 308
280 282 283 284 284 283 281 280 278 277 275 274 273 273 273 274 274 275 276 277 278 279 280 281 282 284 286 287 289 290 292 293 294 294 294 294 294 294 295 295 295 295 296 297 299 301 302 304 305 307 307 308
279 280 281 282 283 282 280 279 277 276 275 273 273 272 272 273 274 275 276 277 278 279 280 281 283 284 286 287 289 290 292 293 294 295 295 295 295 295 296 296 296 296 296 297 298 299 301 303 305 306 307 307
278 279 280 281 282 280 279 278 277 275 274 273 272 272 272 273 274 275 276 276 278 279 280 281 283 284 285 287 288 290 291 293 294 295 295 296 296 296 295 296 296 296 296 296 297 298 300 302 304 305 306 306
276 277 279 280 280 279 278 277 276 275 274 273 272 271 272 272 274 275 275 276 277 279 280 281 282 284 285 286 287 289 290 292 294 295 295 296 296 296 295 295 295 296 296 296 296 297 298 300 302 304 305 305
275 276 278 279 279 278 277 276 275 274 273 272 271 271 271 272 273 274 275 276 277 278 279 280 282 283 284 286 287 288 290 291 293 294 295 295 296 295 295 295 295 295 296 296 297 297 297 298 300 302 304 304
274 275 276 277 278 277 276 275 274 273 272 272 271 271 271 272 273 274 275 276 276 277 279 280 281 283 284 286 287 288 290 291 292 293 294 294 295 295 294 294 294 295 296 296 297 297 297 298 300 301 303 304
273 274 275 276 277 277 276 275 274 273 272 271 271 271 271 271 272 273 274 275 276 277 278 280 281 283 284 286 288 289 290 291 292 292 293 294 294 294 294 293 293 294 295 296 296 297 297 298 300 301 302 304
272 273 274 276 277 277 276 274 273 273 272 271 271 271 270 271 272 273 274 275 276 277 278 279 281 282 284 286 287 289 290 291 292 293 293 294 294 295 294 294 294 294 295 296 297 297 298 299 300 301 302 304
270 271 273 275 276 276 276 274 273 273 272 272 271 271 271 271 272 272 273 274 275 276 277 279 280 282 284 285 287 288 289 290 291 292 293 294 295 295 295 294 294 294 295 296 297 298 299 299 300 301 302 304
269 270 272 274 276 276 275 274 273 273 273 272 272 272 272 271 272 272 273 274 275 276 277 278 280 281 283 284 286 287 288 290 291 292 293 293 294 295 295 294 294 294 295 296 297 299 299 300 301 302 303 303
268 270 272 274 276 276 275 273 273 273 273 273 273 272 272 272 272 272 272 273 274 275 277 278 279 281 282 283 285 286 288 289 290 291 292 293 294 294 294 294 294 294 295 296 297 299 300 300 301 302 302 303
268 269 271 273 275 275 274 273 272 273 273 274 274 273 273 272 272 272 272 273 274 275 276 278 279 280 281 283 284 286 287 288 290 291 292 293 293 294 294 294 294 294 295 296 297 299 300 301 301 302 302 302
268 268 270 272 273 274 273 272 272 272 273 274 274 274 273 273 272 272 273 273 273 275 276 277 278 280 281 282 284 285 286 288 289 290 291 292 293 293 294 294 295 294 295 295 297 298 300 300 301 302 302 302
267 266 268 269 271 272 272 271 271 271 273 274 274 274 273 273 273 273 273 273 274 274 275 276 278 279 280 282 283 285 286 287 288 289 290 291 292 292 293 294 295 295 294 295 296 298 299 300 301 302 302 302
265 264 265 267 269 271 271 271 270 271 272 273 274 274 274 273 273 273 273 274 274 274 275 275 277 278 279 281 282 284 285 286 287 288 289 290 291 291 292 293 294 294 294 295 296 298 299 300 301 302 301 302
263 262 263 265 268 271 272 271 270 271 272 272 273 273 274 273 274 274 274 274 274 275 275 276 276 277 279 280 282 283 285 286 287 288 288 289 290 290 291 292 294 294 294 295 296 298 299 300 301 301 301 302
260 259 261 264 268 272 273 271 271 271 271 271 272 273 274 274 274 274 274 275 275 276 276 276 277 278 279 280 281 282 284 285 286 287 288 288 289 289 290 292 293 294 294 295 297 298 300 301 301 301 301 302
259 259 261 265 269 272 272 271 270 270 271 272 273 274 274 274 275 275 275 275 276 277 277 278 278 278 279 279 280 281 283 284 285 286 287 288 288 289 290 291 292 293 294 295 297 299 300 301 301 301 301 302